Time,TemperatureF,DewpointF,PressureIn,WindDirection,WindDirectionDegrees,WindSpeedMPH,WindSpeedGustMPH,Humidity,HourlyPrecipIn,Conditions,Clouds,dailyrainin,SolarRadiationWatts/m^2,SoftwareType,DateUTC
2013-05-27 00:13:00,60.8,58.0,30.20,SE,136,0.0,0.0,90,0.00,,,0.00,0,weatherlink.com 1.10,2013-05-27 04:13:00,
2013-05-27 00:28:00,60.6,58.0,30.20,SE,136,0.0,0.0,91,0.00,,,0.00,0,weatherlink.com 1.10,2013-05-27 04:28:00,
2013-05-27 00:43:00,60.5,58.0,30.20,SE,136,0.0,0.0,92,0.00,,,0.00,0,weatherlink.com 1.10,2013-05-27 04:43:00,
2013-05-27 00:58:00,60.2,58.0,30.20,SE,136,0.0,0.0,92,0.00,,,0.00,0,weatherlink.com 1.10,2013-05-27 04:58:00,
2013-05-27 01:13:00,59.8,58.0,30.20,SE,136,0.0,0.0,93,0.00,,,0.00,0,weatherlink.com 1.10,2013-05-27 05:13:00,
2013-05-27 01:28:00,59.6,58.0,30.19,SE,136,0.0,0.0,93,0.00,,,0.00,0,weatherlink.com 1.10,2013-05-27 05:28:00,
2013-05-27 01:43:00,59.4,58.0,30.19,SE,136,0.0,0.0,94,0.00,,,0.00,0,weatherlink.com 1.10,2013-05-27 05:43:00,
2013-05-27 01:58:00,59.0,57.0,30.19,SE,136,0.0,0.0,94,0.00,,,0.00,0,weatherlink.com 1.10,2013-05-27 05:58:00,
2013-05-27 02:13:00,58.9,58.0,30.19,SE,136,0.0,0.0,95,0.00,,,0.00,0,weatherlink.com 1.10,2013-05-27 06:13:00,
2013-05-27 02:28:00,58.9,58.0,30.18,SE,136,0.0,0.0,95,0.00,,,0.00,0,weatherlink.com 1.10,2013-05-27 06:28:00,
2013-05-27 02:43:00,58.7,58.0,30.18,SE,136,0.0,0.0,96,0.00,,,0.00,0,weatherlink.com 1.10,2013-05-27 06:43:00,
2013-05-27 02:58:00,58.4,57.0,30.18,SE,136,0.0,0.0,95,0.00,,,0.00,0,weatherlink.com 1.10,2013-05-27 06:58:00,
2013-05-27 03:13:00,58.5,57.0,30.18,SE,136,0.0,0.0,96,0.00,,,0.00,0,weatherlink.com 1.10,2013-05-27 07:13:00,
2013-05-27 03:28:00,58.4,57.0,30.18,SE,136,0.0,0.0,96,0.00,,,0.00,0,weatherlink.com 1.10,2013-05-27 07:28:00,
2013-05-27 03:43:00,58.5,57.0,30.18,SE,136,0.0,0.0,96,0.00,,,0.00,0,weatherlink.com 1.10,2013-05-27 07:43:00,
2013-05-27 03:58:00,58.3,57.0,30.18,SE,136,0.0,0.0,96,0.00,,,0.00,0,weatherlink.com 1.10,2013-05-27 07:58:00,
2013-05-27 04:13:00,58.2,57.0,30.18,SE,136,0.0,0.0,96,0.00,,,0.00,0,weatherlink.com 1.10,2013-05-27 08:13:00,
2013-05-27 04:28:00,58.3,58.0,30.18,SE,136,0.0,0.0,97,0.00,,,0.00,0,weatherlink.com 1.10,2013-05-27 08:28:00,
2013-05-27 04:43:00,58.1,57.0,30.18,SE,136,0.0,0.0,97,0.00,,,0.00,0,weatherlink.com 1.10,2013-05-27 08:43:00,
2013-05-27 04:58:00,58.0,57.0,30.18,SE,136,0.0,0.0,97,0.00,,,0.00,0,weatherlink.com 1.10,2013-05-27 08:58:00,
2013-05-27 05:13:00,57.7,57.0,30.18,SE,136,0.0,0.0,97,0.00,,,0.00,0,weatherlink.com 1.10,2013-05-27 09:13:00,
2013-05-27 05:28:00,57.7,57.0,30.18,SE,136,0.0,0.0,97,0.00,,,0.00,0,weatherlink.com 1.10,2013-05-27 09:28:00,
2013-05-27 05:43:00,57.8,57.0,30.19,SE,136,0.0,0.0,97,0.00,,,0.00,0,weatherlink.com 1.10,2013-05-27 09:43:00,
2013-05-27 05:58:00,57.9,57.0,30.19,SE,136,0.0,0.0,97,0.00,,,0.00,0,weatherlink.com 1.10,2013-05-27 09:58:00,
2013-05-27 06:13:00,57.9,57.0,30.19,SE,136,0.0,0.0,97,0.00,,,0.00,0,weatherlink.com 1.10,2013-05-27 10:13:00,
2013-05-27 06:29:00,57.7,57.0,30.19,SE,136,0.0,0.0,97,0.00,,,0.00,0,weatherlink.com 1.10,2013-05-27 10:29:00,
2013-05-27 06:44:00,57.6,57.0,30.20,SE,136,0.0,0.0,97,0.00,,,0.00,11,weatherlink.com 1.10,2013-05-27 10:44:00,
2013-05-27 06:59:00,57.8,57.0,30.20,SE,136,0.0,0.0,98,0.00,,,0.00,19,weatherlink.com 1.10,2013-05-27 10:59:00,
2013-05-27 07:14:00,58.0,58.0,30.20,SE,142,0.0,1.0,98,0.00,,,0.00,51,weatherlink.com 1.10,2013-05-27 11:14:00,
2013-05-27 07:29:00,58.8,58.0,30.20,SE,142,0.0,0.0,98,0.00,,,0.00,42,weatherlink.com 1.10,2013-05-27 11:29:00,
2013-05-27 07:44:00,59.6,59.0,30.21,SE,142,0.0,0.0,98,0.00,,,0.00,40,weatherlink.com 1.10,2013-05-27 11:44:00,
2013-05-27 07:59:00,61.3,61.0,30.21,SE,142,0.0,0.0,98,0.00,,,0.00,54,weatherlink.com 1.10,2013-05-27 11:59:00,
2013-05-27 08:14:00,62.7,62.0,30.21,SE,142,0.0,0.0,98,0.00,,,0.00,47,weatherlink.com 1.10,2013-05-27 12:14:00,
2013-05-27 08:29:00,64.0,64.0,30.21,SE,142,0.0,0.0,98,0.00,,,0.00,53,weatherlink.com 1.10,2013-05-27 12:29:00,
2013-05-27 08:44:00,66.1,65.0,30.21,SE,142,0.0,0.0,97,0.00,,,0.00,60,weatherlink.com 1.10,2013-05-27 12:44:00,
2013-05-27 08:59:00,67.7,64.0,30.21,SE,142,0.0,0.0,89,0.00,,,0.00,179,weatherlink.com 1.10,2013-05-27 12:59:00,
2013-05-27 09:14:00,71.0,66.0,30.21,SE,142,0.0,1.0,84,0.00,,,0.00,480,weatherlink.com 1.10,2013-05-27 13:14:00,
2013-05-27 09:29:00,74.7,67.0,30.22,SE,142,0.0,5.0,76,0.00,,,0.00,550,weatherlink.com 1.10,2013-05-27 13:29:00,
2013-05-27 09:44:00,77.1,66.0,30.22,SE,142,2.0,5.0,68,0.00,,,0.00,422,weatherlink.com 1.10,2013-05-27 13:44:00,
2013-05-27 09:59:00,78.7,66.0,30.22,South,185,2.0,9.0,65,0.00,,,0.00,670,weatherlink.com 1.10,2013-05-27 13:59:00,
2013-05-27 10:14:00,79.7,66.0,30.22,SSE,152,1.0,9.0,64,0.00,,,0.00,701,weatherlink.com 1.10,2013-05-27 14:14:00,
2013-05-27 10:29:00,80.5,65.0,30.22,SE,126,1.0,6.0,60,0.00,,,0.00,751,weatherlink.com 1.10,2013-05-27 14:29:00,
2013-05-27 10:44:00,81.1,65.0,30.22,East,84,2.0,9.0,59,0.00,,,0.00,782,weatherlink.com 1.10,2013-05-27 14:44:00,
2013-05-27 10:59:00,81.3,66.0,30.22,SE,127,2.0,7.0,59,0.00,,,0.00,821,weatherlink.com 1.10,2013-05-27 14:59:00,
2013-05-27 11:15:00,81.3,66.0,30.22,SE,126,4.0,9.0,59,0.00,,,0.00,861,weatherlink.com 1.10,2013-05-27 15:15:00,
2013-05-27 11:30:00,81.0,66.0,30.22,ESE,107,3.0,9.0,60,0.00,,,0.00,872,weatherlink.com 1.10,2013-05-27 15:30:00,
2013-05-27 11:45:00,81.0,66.0,30.22,East,94,4.0,10.0,61,0.00,,,0.00,925,weatherlink.com 1.10,2013-05-27 15:45:00,
2013-05-27 12:00:00,81.5,66.0,30.23,SE,136,5.0,9.0,60,0.00,,,0.00,951,weatherlink.com 1.10,2013-05-27 16:00:00,
2013-05-27 12:15:00,80.7,66.0,30.23,SE,134,5.0,10.0,61,0.00,,,0.00,745,weatherlink.com 1.10,2013-05-27 16:15:00,
2013-05-27 12:30:00,80.5,69.0,30.22,East,90,1.0,12.0,68,0.00,,,0.00,1121,weatherlink.com 1.10,2013-05-27 16:30:00,
2013-05-27 12:45:00,81.4,67.0,30.22,East,90,2.0,10.0,61,0.00,,,0.00,278,weatherlink.com 1.10,2013-05-27 16:45:00,
2013-05-27 13:00:00,81.3,66.0,30.22,SE,128,4.0,11.0,61,0.00,,,0.00,1167,weatherlink.com 1.10,2013-05-27 17:00:00,
2013-05-27 13:15:00,80.8,65.0,30.22,SE,144,6.0,13.0,59,0.00,,,0.00,308,weatherlink.com 1.10,2013-05-27 17:15:00,
2013-05-27 13:30:00,80.7,67.0,30.21,ESE,115,0.0,16.0,63,0.00,,,0.00,1118,weatherlink.com 1.10,2013-05-27 17:30:00,
2013-05-27 13:45:00,81.2,67.0,30.22,ESE,122,8.0,15.0,63,0.00,,,0.00,1104,weatherlink.com 1.10,2013-05-27 17:45:00,
2013-05-27 14:00:00,81.1,66.0,30.21,SSE,148,5.0,11.0,60,0.00,,,0.00,1155,weatherlink.com 1.10,2013-05-27 18:00:00,
2013-05-27 14:15:00,81.5,65.0,30.21,SSE,151,12.0,16.0,57,0.00,,,0.00,1072,weatherlink.com 1.10,2013-05-27 18:15:00,
2013-05-27 14:30:00,81.7,65.0,30.20,East,82,1.0,10.0,57,0.00,,,0.00,390,weatherlink.com 1.10,2013-05-27 18:30:00,
2013-05-27 14:45:00,82.7,66.0,30.21,ENE,77,5.0,12.0,58,0.00,,,0.00,1123,weatherlink.com 1.10,2013-05-27 18:45:00,
2013-05-27 15:00:00,81.5,65.0,30.20,ESE,103,0.0,12.0,58,0.00,,,0.00,1056,weatherlink.com 1.10,2013-05-27 19:00:00,
2013-05-27 15:15:00,81.8,67.0,30.20,SE,142,4.0,12.0,61,0.00,,,0.00,1150,weatherlink.com 1.10,2013-05-27 19:15:00,
2013-05-27 15:30:00,82.3,66.0,30.19,East,80,7.0,11.0,58,0.00,,,0.00,1063,weatherlink.com 1.10,2013-05-27 19:30:00,
2013-05-27 15:45:00,81.2,66.0,30.18,ESE,111,3.0,11.0,60,0.00,,,0.00,367,weatherlink.com 1.10,2013-05-27 19:45:00,
2013-05-27 16:00:00,81.3,65.0,30.18,SE,142,5.0,11.0,57,0.00,,,0.00,891,weatherlink.com 1.10,2013-05-27 20:00:00,
2013-05-27 16:15:00,81.8,65.0,30.18,ESE,113,2.0,13.0,57,0.00,,,0.00,838,weatherlink.com 1.10,2013-05-27 20:15:00,
2013-05-27 16:30:00,81.8,65.0,30.18,East,80,4.0,14.0,56,0.00,,,0.00,816,weatherlink.com 1.10,2013-05-27 20:30:00,
2013-05-27 16:45:00,80.9,65.0,30.17,SSE,150,2.0,12.0,59,0.00,,,0.00,290,weatherlink.com 1.10,2013-05-27 20:45:00,
2013-05-27 17:00:00,80.3,66.0,30.17,SSE,151,11.0,15.0,62,0.00,,,0.00,777,weatherlink.com 1.10,2013-05-27 21:00:00,
2013-05-27 17:15:00,79.8,65.0,30.17,East,79,5.0,16.0,60,0.00,,,0.00,200,weatherlink.com 1.10,2013-05-27 21:15:00,
2013-05-27 17:30:00,77.9,65.0,30.17,ENE,67,0.0,8.0,64,0.00,,,0.00,128,weatherlink.com 1.10,2013-05-27 21:30:00,
2013-05-27 17:45:00,77.1,65.0,30.17,East,92,2.0,10.0,67,0.00,,,0.00,132,weatherlink.com 1.10,2013-05-27 21:45:00,
2013-05-27 18:00:00,76.7,65.0,30.16,SSE,163,2.0,9.0,68,0.00,,,0.00,135,weatherlink.com 1.10,2013-05-27 22:00:00,
2013-05-27 18:15:00,77.1,66.0,30.16,SSW,193,10.0,11.0,68,0.00,,,0.00,357,weatherlink.com 1.10,2013-05-27 22:15:00,
2013-05-27 18:30:00,78.2,64.0,30.15,ESE,118,0.0,14.0,62,0.00,,,0.00,258,weatherlink.com 1.10,2013-05-27 22:30:00,
2013-05-27 18:45:00,77.9,64.0,30.15,SSE,147,6.0,13.0,63,0.00,,,0.00,128,weatherlink.com 1.10,2013-05-27 22:45:00,
2013-05-27 19:00:00,77.0,64.0,30.15,SE,138,4.0,12.0,64,0.00,,,0.00,165,weatherlink.com 1.10,2013-05-27 23:00:00,
2013-05-27 19:15:00,76.1,64.0,30.15,East,100,3.0,13.0,66,0.00,,,0.00,44,weatherlink.com 1.10,2013-05-27 23:15:00,
2013-05-27 19:30:00,75.2,64.0,30.15,SE,140,3.0,12.0,69,0.00,,,0.00,26,weatherlink.com 1.10,2013-05-27 23:30:00,
2013-05-27 19:45:00,74.8,64.0,30.15,SSE,153,7.0,12.0,70,0.00,,,0.00,21,weatherlink.com 1.10,2013-05-27 23:45:00,
2013-05-27 20:00:00,74.5,64.0,30.15,SE,125,4.0,9.0,70,0.00,,,0.00,14,weatherlink.com 1.10,2013-05-28 00:00:00,
2013-05-27 20:15:00,74.0,64.0,30.16,SE,137,3.0,9.0,71,0.00,,,0.00,5,weatherlink.com 1.10,2013-05-28 00:15:00,
2013-05-27 20:30:00,73.8,64.0,30.16,SE,134,0.0,7.0,71,0.00,,,0.00,0,weatherlink.com 1.10,2013-05-28 00:30:00,
2013-05-27 20:45:00,73.4,64.0,30.16,SE,134,2.0,5.0,72,0.00,,,0.00,0,weatherlink.com 1.10,2013-05-28 00:45:00,
2013-05-27 21:00:00,73.4,64.0,30.17,SE,135,4.0,8.0,72,0.00,,,0.00,0,weatherlink.com 1.10,2013-05-28 01:00:00,
2013-05-27 21:15:00,73.1,64.0,30.17,SE,131,2.0,8.0,72,0.00,,,0.00,0,weatherlink.com 1.10,2013-05-28 01:15:00,
2013-05-27 21:30:00,73.0,64.0,30.17,ESE,111,3.0,8.0,73,0.00,,,0.00,0,weatherlink.com 1.10,2013-05-28 01:30:00,
2013-05-27 21:45:00,73.0,63.0,30.18,SE,143,2.0,7.0,72,0.00,,,0.00,0,weatherlink.com 1.10,2013-05-28 01:45:00,
2013-05-27 22:00:00,73.0,64.0,30.18,SE,128,3.0,8.0,73,0.00,,,0.00,0,weatherlink.com 1.10,2013-05-28 02:00:00,
2013-05-27 22:15:00,73.1,63.0,30.19,SE,138,11.0,11.0,71,0.00,,,0.00,0,weatherlink.com 1.10,2013-05-28 02:15:00,
2013-05-27 22:30:00,73.4,63.0,30.19,SE,131,2.0,10.0,71,0.00,,,0.00,0,weatherlink.com 1.10,2013-05-28 02:30:00,
2013-05-27 22:45:00,73.4,63.0,30.19,SSE,161,6.0,11.0,70,0.00,,,0.00,0,weatherlink.com 1.10,2013-05-28 02:45:00,
2013-05-27 23:00:00,73.5,63.0,30.19,SE,127,1.0,9.0,69,0.00,,,0.00,0,weatherlink.com 1.10,2013-05-28 03:00:00,
2013-05-27 23:15:00,73.5,64.0,30.19,SE,135,1.0,8.0,71,0.00,,,0.00,0,weatherlink.com 1.10,2013-05-28 03:15:00,
2013-05-27 23:30:00,73.4,63.0,30.19,SE,138,2.0,14.0,71,0.00,,,0.00,0,weatherlink.com 1.10,2013-05-28 03:30:00,
2013-05-27 23:45:00,73.2,63.0,30.19,SE,139,3.0,9.0,71,0.00,,,0.00,0,weatherlink.com 1.10,2013-05-28 03:45:00,